Regional Weather Roundup
Issued by NWS

Home | Current Version | Previous Version | Graphics & Text | Print | Product List | Glossary On
Versions: 1 2 3 4 5 6 7 8 9 10 11 12 13 14 15 16 17 18 19 20 21 22 23 24 25 26 27 28 29 30 31 32 33 34 35 36 37 38 39 40 41 42 43 44 45 46 47 48 49 50
873
ASUS45 KBOU 271210
RWRCO

WEATHER ROUNDUP FOR COLORADO
NATIONAL WEATHER SERVICE DENVER/BOULDER CO
600 AM MDT TUE SEP 27 2016

NOTE: "FAIR" INDICATES FEW OR NO CLOUDS BELOW 12000 FEET WITH NO
SIGNIFICANT WEATHER AND/OR OBSTRUCTIONS TO VISIBILITY.

COZ001>005-013-030-031-271300-
...NORTHWEST COLORADO...

CITY           SKY/WX    TMP DP  RH WIND       PRES   REMARKS
CRAIG          FAIR      32  29  88 CALM      30.36S
HAYDEN         FAIR      41  30  65 E12       30.36S
MEEKER         FAIR      37  34  89 CALM      30.36S
MOUNT WERNER   NOT AVBL
STEAMBOAT SPGS FAIR      35  32  89 CALM      30.38S
WALDEN           N/A     28  23  80 SE7       30.45S WCI  21
$$

COZ006>008-011-271300-
...WEST CENTRAL VALLEYS...

CITY           SKY/WX    TMP DP  RH WIND       PRES   REMARKS
GRAND JUNCTION FAIR      50  39  66 SE5       30.27R
MONTROSE       FAIR      43  36  76 SE7       30.34S
EAGLE          FAIR      36  30  80 E3        30.43R
RIFLE          FAIR      42  38  85 SE5       30.33R
DELTA          NOT AVBL
NUCLA          FAIR      45  32  61 SE8       30.37R
$$

COZ017>023-064>068-271300-
...SOUTHWEST COLORADO...

CITY           SKY/WX    TMP DP  RH WIND       PRES   REMARKS
DURANGO        FAIR      40  34  79 N3        30.37S
CORTEZ         FAIR      37  34  89 CALM      30.32S
PAGOSA SPRINGS FAIR      38  34  85 CALM      30.43R
TELLURIDE      FAIR      42  36  78 SE5       30.49S
WOLF CREEK PAS FAIR      39  28  65 MISG      30.64S
$$

COZ009-010-012-014-032>034-037-058>063-271300-
...CENTRAL COLORADO...

CITY           SKY/WX    TMP DP  RH WIND       PRES   REMARKS
ASPEN          FAIR      39  31  72 S5        30.42S
BUENA VISTA    FAIR      36  25  63 CALM      30.44S
COPPER MTN     FAIR      45  23  42 W5        30.64S
BERTHOUD PASS  FAIR      36  23  60 NW20      30.65S
COTTONWOOD PAS FAIR      50  21  32 CALM      30.51S
GUNNISON       FAIR      29  27  92 CALM      30.47R
KREMMLING      FAIR      30  23  74 CALM      30.47R
LEADVILLE      FAIR      27  21  78 CALM      30.52S
MONARCH PASS   FAIR      36  21  55 SW17      30.72S
SALIDA         FAIR      42  26  55 W3        30.50S
SUNLIGHT       FAIR      46  28  49 CALM      30.59S
WILKERSON PASS FAIR      41  23  48 W8        30.61R
$$

COZ069>075-271300-
...SAN LUIS VALLEY/SANGRE DE CRISTO MOUNTAINS...

CITY           SKY/WX    TMP DP  RH WIND       PRES   REMARKS
ALAMOSA        FAIR      32  26  78 CALM      30.42R
LA VETA PASS   FAIR      39  28  65 MISG      30.52S
SAGUACHE       NOT AVBL
$$

COZ035-036-038>040-271300-
...NORTHERN COLORADO FRONT RANGE...

CITY           SKY/WX    TMP DP  RH WIND       PRES   REMARKS
DENVER INTL AP FAIR      48  31  51 SW8       30.25F
DMNS CITY PARK   N/A     48  33  56 S5        30.25S
AURORA         PTCLDY    45  32  61 S8        30.26F
FRONT RANGE AP NOT AVBL
ERIE MUNI ARPT FAIR      41  34  74 CALM      30.24F
BOULDER MUN AP FAIR      50  34  53 CALM      30.24F
CENTENNIAL     FAIR      47  30  51 SE5       30.27F
BROOMFIELD     FAIR      54  32  43 CALM      30.26F
FORT COLLINS   FAIR      46  37  71 N3        30.24S
LONGMONT       FAIR      46  35  65 W3        30.25F
$$

COZ041-046-047-076>085-087-088-271300-
...PIKES PEAK/PALMER DIVIDE AND SOUTHERN FOOTHILLS...

CITY           SKY/WX    TMP DP  RH WIND       PRES   REMARKS
COLO. SPRINGS  FAIR      44  29  55 N3        30.31S
A. F. ACADEMY  FAIR      38  28  68 N8        30.31S
SCHRIEVER AFB  NOT AVBL
ELLICOTT       NOT AVBL
FALCON         FAIR      44  29  56 SW3       30.34S
FORT CARSON    FAIR      45  30  54 NW9       30.27F
LIMON          FAIR      36  27  69 NW3       30.26S
MONUMENT HILL  FAIR      43  28  56 SW8       30.34S
TRINIDAD       FAIR      48  33  56 W14       30.30S
$$

COZ042>045-048>051-090-091-271300-
...NORTHEAST COLORADO...

CITY           SKY/WX    TMP DP  RH WIND       PRES   REMARKS
GREELEY ARPT   FAIR      43  36  75 NW3       30.24S
AKRON          FAIR      44  35  70 W8        30.21S
BURLINGTON     FAIR      45  37  73 W7        30.20S
WRAY           NOT AVBL
STERLING       FAIR      39  36  87 S3        30.19S
HOLYOKE        FAIR      45  39  81 W6        30.18S
FORT MORGAN    FAIR      39  33  80 SW5       30.22S
$$

COZ086-089-092>099-271300-
...SOUTHEAST COLORADO...

CITY           SKY/WX    TMP DP  RH WIND       PRES   REMARKS
PUEBLO         FAIR      46  31  55 SW5       30.24S
LA JUNTA       FAIR      46  32  58 W10       30.23R
LAMAR          FAIR      42  32  67 SW9       30.19S
SPRINGFIELD    NOT AVBL
$$




USA.gov is the U.S. government's official web portal to all federal, state and local government web resources and services.